sat.trackr.live / text

‹ back to catalog

ICEYE-X26

NORAD 56961 · 2023-084AF

PAYLOAD ACTIVE UNKNOWN

§ Identity

Operator
Country
US
Launch date
2023-06-12
Launch site
AFWTR
Launch vehicle
Mass (kg)
RCS (m²)

External: N2YO · Heavens-Above · Gunter

§ Orbital elements

Epoch: 2026-05-24T23:08:24.609408Z

Period
89.73 min
Inclination
97.5648°
Eccentricity
0.0010200
Mean motion
16.04785419 rev/d
Perigee alt
254.4 km
Apogee alt
268.0 km
Semi-major
6,639.3 km
B*
1.3573e-3
RAAN
308.3929°
Arg perigee
278.2428°
Mean anomaly
81.7695°
Rev number
16,556

§ Raw data

ICEYE-X261 56961U 23084AF  26144.96417372  .00909126  43311-3  13573-2 0  99932 56961  97.5648 308.3929 0010200 278.2428  81.7695 16.04785419165562

JSON: /api/v1/satellites/56961 · /tle

For live sub-satellite position, see the globe view (requires WebGL).

§ Visibility from observer

Set your observer location to see the next 7 days of passes ≥ 10°. The values pass through the URL so the page stays shareable.

No JS? Fill the form by hand. The geolocation button needs JavaScript.

§ Radio — SatNOGS DB

ModeDescriptionDownlinkUplink
BPSK S-band telemetry 2.270 GHz

1 transmitter · refreshed weekly from db.satnogs.org